Time,TemperatureF,DewpointF,PressureIn,WindDirection,WindDirectionDegrees,WindSpeedMPH,WindSpeedGustMPH,Humidity,HourlyPrecipIn,Conditions,Clouds,dailyrainin,SolarRadiationWatts/m^2,SoftwareType,DateUTC
2013-06-22 11:02:00,69.0,58.0,-100.00,NW,308,2.0,4.0,67,0.00,,,0.00,344.000000,,2013-06-22 15:02:00,
2013-06-22 11:12:00,69.0,58.0,-100.00,NW,308,2.0,4.0,67,0.00,,,0.00,344.000000,,2013-06-22 15:12:00,
2013-06-22 11:22:00,69.0,58.0,-100.00,NW,308,2.0,4.0,67,0.00,,,0.00,344.000000,,2013-06-22 15:22:00,
2013-06-22 12:02:00,73.0,56.0,-100.00,NW,313,2.0,4.0,55,0.00,,,0.00,440.000000,,2013-06-22 16:02:00,
2013-06-22 12:12:00,73.0,56.0,-100.00,NW,313,2.0,4.0,55,0.00,,,0.00,440.000000,,2013-06-22 16:12:00,
2013-06-22 12:22:00,73.0,56.0,-100.00,NW,313,2.0,4.0,55,0.00,,,0.00,440.000000,,2013-06-22 16:22:00,
2013-06-22 12:52:00,72.0,62.0,-100.00,NE,54,1.0,4.0,70,0.00,,,0.00,352.000000,,2013-06-22 16:52:00,
2013-06-22 13:02:00,72.0,62.0,-100.00,NE,54,1.0,4.0,70,0.00,,,0.00,352.000000,,2013-06-22 17:02:00,
2013-06-22 13:11:00,72.0,62.0,-100.00,NE,54,1.0,4.0,70,0.00,,,0.00,352.000000,,2013-06-22 17:11:00,
2013-06-22 13:22:00,72.0,62.0,-100.00,NE,54,1.0,4.0,70,0.00,,,0.00,352.000000,,2013-06-22 17:22:00,
2013-06-22 13:52:00,68.0,66.0,-100.00,ESE,117,2.0,3.0,92,0.02,,,0.02,163.000000,,2013-06-22 17:52:00,
2013-06-22 14:02:00,68.0,66.0,-100.00,ESE,117,2.0,3.0,92,0.02,,,0.02,163.000000,,2013-06-22 18:02:00,
2013-06-22 14:12:00,68.0,66.0,-100.00,ESE,117,2.0,3.0,92,0.02,,,0.02,163.000000,,2013-06-22 18:12:00,
2013-06-22 14:23:00,68.0,66.0,-100.00,ESE,117,2.0,3.0,92,0.02,,,0.02,163.000000,,2013-06-22 18:23:00,
2013-06-22 14:52:00,71.0,65.0,-100.00,SE,126,1.0,3.0,80,0.01,,,0.03,300.000000,,2013-06-22 18:52:00,
2013-06-22 15:01:00,71.0,65.0,-100.00,SE,126,1.0,3.0,80,0.01,,,0.03,300.000000,,2013-06-22 19:01:00,
2013-06-22 15:11:00,71.0,65.0,-100.00,SE,126,1.0,3.0,80,0.01,,,0.03,300.000000,,2013-06-22 19:11:00,
2013-06-22 15:22:00,71.0,65.0,-100.00,SE,126,1.0,3.0,80,0.01,,,0.03,300.000000,,2013-06-22 19:22:00,
2013-06-22 15:53:00,74.0,65.0,-100.00,East,88,1.0,5.0,73,0.00,,,0.03,442.000000,,2013-06-22 19:53:00,
2013-06-22 16:02:00,74.0,65.0,-100.00,East,88,1.0,5.0,73,0.00,,,0.03,442.000000,,2013-06-22 20:02:00,
2013-06-22 16:11:00,74.0,65.0,-100.00,East,88,1.0,5.0,73,0.00,,,0.03,442.000000,,2013-06-22 20:11:00,
2013-06-22 16:22:00,74.0,65.0,-100.00,East,88,1.0,5.0,73,0.00,,,0.03,442.000000,,2013-06-22 20:22:00,
2013-06-22 16:53:00,71.0,64.0,-100.00,ENE,66,1.0,4.0,78,0.00,,,0.03,242.000000,,2013-06-22 20:53:00,
2013-06-22 17:01:00,71.0,64.0,-100.00,ENE,66,1.0,4.0,78,0.00,,,0.03,242.000000,,2013-06-22 21:01:00,
2013-06-22 17:11:00,71.0,64.0,-100.00,ENE,66,1.0,4.0,78,0.00,,,0.03,242.000000,,2013-06-22 21:11:00,
2013-06-22 17:22:00,71.0,64.0,-100.00,ENE,66,1.0,4.0,78,0.00,,,0.03,242.000000,,2013-06-22 21:22:00,
2013-06-22 17:53:00,68.0,66.0,-100.00,SSW,212,1.0,3.0,94,0.02,,,0.05,89.000000,,2013-06-22 21:53:00,
2013-06-22 18:02:00,68.0,66.0,-100.00,SSW,212,1.0,3.0,94,0.02,,,0.05,89.000000,,2013-06-22 22:02:00,
2013-06-22 18:12:00,68.0,66.0,-100.00,SSW,212,1.0,3.0,94,0.02,,,0.05,89.000000,,2013-06-22 22:12:00,
2013-06-22 18:23:00,68.0,66.0,-100.00,SSW,212,1.0,3.0,94,0.02,,,0.05,89.000000,,2013-06-22 22:23:00,
2013-06-22 18:52:00,66.0,65.0,-100.00,ESE,122,0.0,2.0,98,0.06,,,0.11,53.000000,,2013-06-22 22:52:00,
2013-06-22 19:02:00,66.0,65.0,-100.00,ESE,122,0.0,2.0,98,0.06,,,0.11,53.000000,,2013-06-22 23:02:00,
2013-06-22 19:11:00,66.0,65.0,-100.00,ESE,122,0.0,2.0,98,0.06,,,0.11,53.000000,,2013-06-22 23:11:00,
2013-06-22 19:22:00,66.0,65.0,-100.00,ESE,122,0.0,2.0,98,0.06,,,0.11,53.000000,,2013-06-22 23:22:00,
2013-06-22 19:53:00,64.0,63.0,-100.00,ESE,117,2.0,4.0,98,0.02,,,0.13,38.000000,,2013-06-22 23:53:00,
2013-06-22 20:01:00,64.0,63.0,-100.00,ESE,117,2.0,4.0,98,0.02,,,0.13,38.000000,,2013-06-23 00:01:00,
2013-06-22 20:11:00,64.0,63.0,-100.00,ESE,117,2.0,4.0,98,0.02,,,0.13,38.000000,,2013-06-23 00:11:00,
2013-06-22 20:22:00,64.0,63.0,-100.00,ESE,117,2.0,4.0,98,0.02,,,0.13,38.000000,,2013-06-23 00:22:00,
2013-06-22 20:53:00,62.0,62.0,-100.00,ESE,104,2.0,3.0,99,0.00,,,0.13,19.000000,,2013-06-23 00:53:00,
2013-06-22 21:01:00,62.0,62.0,-100.00,ESE,104,2.0,3.0,99,0.00,,,0.13,19.000000,,2013-06-23 01:01:00,
2013-06-22 21:12:00,62.0,62.0,-100.00,ESE,104,2.0,3.0,99,0.00,,,0.13,19.000000,,2013-06-23 01:12:00,
2013-06-22 21:22:00,62.0,62.0,-100.00,ESE,104,2.0,3.0,99,0.00,,,0.13,19.000000,,2013-06-23 01:22:00,
2013-06-22 21:52:00,62.0,62.0,-100.00,ESE,121,3.0,5.0,100,0.00,,,0.13,0.000000,,2013-06-23 01:52:00,
2013-06-22 22:01:00,62.0,62.0,-100.00,ESE,121,3.0,5.0,100,0.00,,,0.13,0.000000,,2013-06-23 02:01:00,
2013-06-22 22:11:00,62.0,62.0,-100.00,ESE,121,3.0,5.0,100,0.00,,,0.13,0.000000,,2013-06-23 02:11:00,
2013-06-22 22:21:00,62.0,62.0,-100.00,ESE,121,3.0,5.0,100,0.00,,,0.13,0.000000,,2013-06-23 02:21:00,
2013-06-22 22:52:00,62.0,62.0,-100.00,West,266,2.0,6.0,99,0.01,,,0.14,0.000000,,2013-06-23 02:52:00,
2013-06-22 23:01:00,62.0,62.0,-100.00,West,266,2.0,6.0,99,0.01,,,0.14,0.000000,,2013-06-23 03:01:00,
2013-06-22 23:11:00,62.0,62.0,-100.00,West,266,2.0,6.0,99,0.01,,,0.14,0.000000,,2013-06-23 03:11:00,
2013-06-22 23:21:00,62.0,62.0,-100.00,West,266,2.0,6.0,99,0.01,,,0.14,0.000000,,2013-06-23 03:21:00,
2013-06-22 23:52:00,62.0,62.0,-100.00,SW,215,1.0,6.0,99,0.00,,,0.14,0.000000,,2013-06-23 03:52:00,